Location: Unspecified
(0.0000°N, 0.0000°E)
Time: 15:11:14
(UTC+00:00)

N. Korean satellite - Visible Passes

Search period start: 24 January 2021 00:00
Search period end: 03 February 2021 00:00
Orbit: 452 x 502 km, 97.2° (Epoch: 23 January)

Date Brightness Start Highest point End Pass type
(mag) Time Alt. Az. Time Alt. Az. Time Alt. Az.
24 Jan 6.9 05:24:28 10° N 05:27:37 37° W 05:30:47 10° SSW visible
25 Jan 6.8 04:57:45 10° NNE 05:01:05 66° E 05:04:28 10° S visible
26 Jan 9.1 04:31:55 10° NE 04:34:35 21° E 04:37:15 10° SSE visible
27 Jan 7.7 05:38:27 10° NNW 05:41:07 21° W 05:43:47 10° SW visible
28 Jan 6.3 05:11:13 10° N 05:14:34 66° W 05:17:58 10° SSW visible
29 Jan 8.0 04:44:53 10° NNE 04:48:02 37° E 04:51:14 10° S visible
30 Jan 9.8 04:19:48 10° ENE 04:21:31 13° ESE 04:23:16 10° SE visible
31 Jan 7.0 05:24:53 10° NNW 05:28:02 36° W 05:31:12 10° SSW visible
01 Feb 6.7 04:58:06 10° NNE 05:01:29 68° E 05:04:54 10° S visible
02 Feb 9.0 04:32:14 10° NE 04:34:57 22° E 04:37:41 10° SSE visible
